Location: Fernhill
(41.0167°S, 175.6333°E)
Time: 12:24:08
(UTC+00:00)

Cosmos 2360 - Pass Details

Date: 08 November 2025
Orbit: 844 x 857 km, 70.8° (Epoch: 10 December)

Event Time Altitude Azimuth Distance (km) Brightness Sun altitude
Rises 09:43:26 0° 207° (SSW) 3,442 8.7 -24.0°
Reaches altitude 10° 09:45:54 10° 208° (SSW) 2,499 7.7 -24.3°
Maximum altitude 09:51:37 71° 291° (WNW) 901 4.3 -24.9°
Enters shadow 09:52:39 58° 348° (NNW) 993 4.3 -25.0°
